This demonstration page uses our WeatherBlox Daily Observations layout. Learn more.

Left ArrowRight Arrow

36.17497, -115.13722

Hourly Observations for January 30, 2022

Temp ( °F °C ) Dew Point ( °F °C ) Humidity (%) Winds ( mph kmh ) Pressure ( in mb ) Visibility ( mi km ) Precip ( " mm )
12:53 am 00:53 Clear 53 11.7 3 -16.1 13 13 NNW 6 9 30.12 1020 10 16 0.00 0.00
1:53 am 01:53 Clear 47 8.3 5 -15 18 18 S 5 7 30.13 1020 10 16 0.00 0.00
2:53 am 02:53 Clear 47 8.3 4 -15.6 17 17 NNW 12 19 30.14 1021 10 16 0.00 0.00
3:53 am 03:53 Clear 49 9.4 3 -16.1 15 15 N 8 13 30.13 1020 10 16 0.00 0.00
4:53 am 04:53 Clear 44 6.7 7 -13.9 22 22 WNW 6 9 30.15 1021 10 16 0.00 0.00
5:53 am 05:53 Clear 41 5 6 -14.4 23 23 WNW 6 9 30.17 1022 10 16 0.00 0.00
6:53 am 06:53 Sunny 44 6.7 4 -15.6 19 19 NNW 10 17 30.18 1022 10 16 0.00 0.00
7:53 am 07:53 Sunny 47 8.3 4 -15.6 17 17 NW 6 9 30.20 1023 10 16 0.00 0.00
8:53 am 08:53 Sunny 52 11.1 5 -15 15 15 NW 6 9 30.22 1023 10 16 0.00 0.00
9:53 am 09:53 Sunny 56 13.3 5 -15 13 13 NNE 5 7 30.24 1024 10 16 0.00 0.00
10:53 am 10:53 Sunny 58 14.4 7 -13.9 13 13 SW 3 6 30.22 1023 10 16 0.00 0.00
11:53 am 11:53 Sunny 61 16.1 5 -15 10 10 ESE 7 11 30.18 1022 10 16 0.00 0.00
12:53 pm 12:53 Sunny 62 16.7 7 -13.9 11 11 SE 6 9 30.15 1021 10 16 0.00 0.00
1:53 pm 13:53 Sunny 63 17.2 7 -13.9 11 11 SSE 7 11 30.14 1021 10 16 0.00 0.00
2:53 pm 14:53 Sunny 64 17.8 7 -13.9 10 10 SSE 5 7 30.14 1021 10 16 0.00 0.00
3:53 pm 15:53 Sunny 65 18.3 7 -13.9 10 10 ESE 6 9 30.13 1020 10 16 0.00 0.00
4:53 pm 16:53 Sunny 62 16.7 7 -13.9 11 11 E 5 7 30.13 1020 10 16 0.00 0.00
5:53 pm 17:53 Clear 59 15 7 -13.9 12 12 NNE 3 6 30.16 1021 10 16 0.00 0.00
6:53 pm 18:53 Clear 54 12.2 11 -11.7 18 18 WNW 7 11 30.17 1022 10 16 0.00 0.00
7:53 pm 19:53 Clear 51 10.6 13 -10.6 22 22 W 7 11 30.18 1022 10 16 0.00 0.00
8:53 pm 20:53 Clear 48 8.9 11 -11.7 22 22 W 6 9 30.19 1022 10 16 0.00 0.00
9:53 pm 21:53 Clear 47 8.3 12 -11.1 24 24 WNW 6 9 30.19 1022 10 16 0.00 0.00
10:53 pm 22:53 Clear 47 8.3 12 -11.1 24 24 SSW 3 6 30.18 1022 10 16 0.00 0.00
11:53 pm 23:53 Clear 44 6.7 11 -11.7 26 26 WNW 7 11 30.18 1022 10 16 0.00 0.00

Powered by AerisWeather